sat.trackr.live / text

‹ back to catalog

STARLINK-35444

NORAD 66511 · 2025-263AC

PAYLOAD ACTIVE UNKNOWN

§ Identity

Operator
Country
US
Launch date
2025-11-15
Launch site
AFETR
Launch vehicle
Mass (kg)
RCS (m²)

Purposes: comms

External: N2YO · Heavens-Above · Gunter

§ Orbital elements

Epoch: 2026-09-20T11:55:35.015520Z

Period
94.27 min
Inclination
42.9993°
Eccentricity
0.0000796
Mean motion
15.27588392 rev/d
Perigee alt
482.5 km
Apogee alt
483.6 km
Semi-major
6,861.2 km
B*
4.6107e-4
RAAN
330.3906°
Arg perigee
290.0783°
Mean anomaly
69.9983°
Rev number
4,869

§ Raw data

STARLINK-354441 66511U 25263AC  26263.49693305  .00012450  00000+0  46107-3 0  99972 66511  42.9993 330.3906 0000796 290.0783  69.9983 15.27588392 48693

JSON: /api/v1/satellites/66511 · /tle

For live sub-satellite position, see the globe view (requires WebGL).

§ Visibility from observer

Set your observer location to see the next 7 days of passes ≥ 10°. The values pass through the URL so the page stays shareable.

No JS? Fill the form by hand. The geolocation button needs JavaScript.